Flag for Switzerland Weather past 2 weeks in Sion, Valais, Switzerland

Now
40 °F

Overcast.


Feels Like: 40 °F
Forecast: 46 / 65 °F
Wind: 2 mph from West

Location: Sion


UV Index: 0 (Low)

Visibility: 13 mi


Pressure: 29.79 "Hg

Humidity: 75%

Dew point: 33 °F

Location of SionLocation

Historic Weather in Sion

°F

Sion temperature yesterday

Maximum temperature yesterday: 53 °F (at 2:00 PM)
Minimum temperature yesterday: 39 °F (at 5:00 AM)
Average temperature yesterday: 48 °F

Past Weeks' High & Low Weather Summary

 TemperatureHumidityPressure
High75 °F (Apr 11, 5:00 PM)94% (Apr 8, 10:00 AM)30.31 "Hg (Apr 8, 10:00 AM)
Low37 °F (Apr 16, 5:00 AM)18% (Apr 15, 4:00 PM)29.57 "Hg (Apr 4, 5:00 PM)
Average56 °F56%30.03 "Hg
* Reported Apr 4 7:00 AM — Apr 19 7:00 AM, Sion, Weather by CustomWeather, © 2014

Note: Actual official high and low records may vary slightly from our data, if they occured in-between our weather recording intervals... More about our weather records

Advertising

Historic Weather Conditions — Data for Previous 24 hours

 ConditionsComfort  
Time TempWeatherWind HumidityBarometerVisibility
7:00 AM
Apr 19
38 °FChilly.No wind83%29.79 "HgN/A
6:00 AM38 °FChilly.5 mph81%29.78 "HgN/A
5:00 AM38 °FPassing clouds.1 mph79%29.79 "Hg9 mi
4:00 AM40 °FChilly.1 mph73%29.78 "HgN/A
3:00 AM42 °FQuite cool.7 mph68%29.78 "HgN/A
2:00 AM44 °FPassing clouds.9 mph65%29.78 "Hg12 mi
1:00 AM45 °FQuite cool.9 mph64%29.80 "HgN/A
12:00 AM45 °FQuite cool.7 mph69%29.82 "HgN/A
11:00 PM
Apr 18
45 °FCool.12 mph71%29.82 "HgN/A
10:00 PM46 °FCool.8 mph73%29.81 "HgN/A
9:00 PM47 °FCool.9 mph79%29.79 "HgN/A
8:00 PM49 °FOvercast.12 mph69%29.78 "Hg9 mi
7:00 PM52 °FCool.2 mph66%29.79 "HgN/A
6:00 PM52 °FCool.5 mph59%29.81 "HgN/A
5:00 PM52 °FOvercast.3 mph60%29.83 "Hg11 mi
4:00 PM52 °FCool.6 mph60%29.85 "HgN/A
3:00 PM53 °FCool.9 mph57%29.87 "HgN/A
2:00 PM53 °FCool.12 mph51%29.86 "HgN/A
1:00 PM53 °FCool.5 mph50%29.87 "HgN/A
12:00 PM52 °FCool.6 mph43%29.89 "HgN/A
11:00 AM51 °FOvercast.3 mph48%29.90 "Hg12 mi
10:00 AM49 °FCool.1 mph54%29.93 "HgN/A
9:00 AM46 °FCool.No wind64%29.97 "HgN/A
Weather by CustomWeather, © 2014

See weather overview